OpenBCM V2.0.2 (Linux)

Packet Radio Mailbox

IZ3LSV

[San Dona' di P. JN]

 Login: GUEST





  
LU9DCE > KEPS     14.07.18 19:28l 252 Lines 12467 Bytes #999 (0) @ WW
BID : 9122_LU9DCE
Read: GUEST
Subj: SAT TLE 23 06 2018
Path: IZ3LSV<IW8PGT<CX2SA<EA2RCF<LU9DCE
Sent: 180623/0700Z 9122@LU9DCE.TOR.BA.ARG.SOAM BPQ6.0.16


            __    _  _  ___  ____   ___  ____    ____  ____  ____
           (  )  / )( \/ _ \(    \ / __)(  __)  (  _ \(  _ \/ ___)
           / (_/\) \/ (\__  )) D (( (__  ) _)    ) _ ( ) _ (\___ \
           \____/\____/(___/(____/ \___)(____)  (____/(____/(____/
               ESTACION DE PACKET RADIO - BUENOS AIRES (GF05OM)
                   BOLETINES INFORMATIVOS PROGRAMADOS (BIP)
                    LU9DCE@GMX.COM - RF 145070 @ 1200 BAUD
                   AXIP NETROM -- LU9DCE.DYNU.COM UDP 10093

+------------------------------------------------------------------------------+
OSCAR 7
1  7530U 74089B   18173.92070601 -.00000037 +00000-0 +47358-4 0  9990
2  7530 101.6871 141.1549 0011941 326.4645 097.9174 12.53633090995082
OSCAR 11 (UoSAT 2)
1 14781U 84021B   18173.87042611 +.00000068 +00000-0 +14591-4 0  9993
2 14781 097.6485 209.8445 0009927 068.7569 291.4705 14.83012312824289
OSCAR 19 (LUSAT)
1 20442U 90005G   18174.07816390  .00000001  00000-0  16602-4 0  9991
2 20442  98.6103 112.5337 0012632 129.1517 231.0792 14.32898478484737
EYESAT A
1 22825U 93061C   18173.88808442  .00000005  00000-0  19878-4 0  9992
2 22825  98.8626 150.1068 0007941 337.6374  22.4461 14.30033018290389
ITAMSAT
1 22826U 93061D   18173.90358329 +.00000005 +00000-0 +19716-4 0  9991
2 22826 098.8568 150.1597 0008291 326.1534 033.9117 14.30364550290329
RADIO ROSTO
1 23439U 94085A   18173.83740928 -.00000024 +00000-0 +53770-3 0  9990
2 23439 064.8184 339.6947 0157098 181.0358 283.0411 11.27567345967205
JAS 2
1 24278U 96046B   18173.77626090 -.00000022  00000-0  10190-4 0  9995
2 24278  98.5173  11.7628 0351417  96.4133 267.7141 13.53084041 78990
TECHSAT 1B
1 25397U 98043D   18173.86493623 -.00000026 +00000-0 +74704-5 0  9997
2 25397 098.6500 114.2095 0001836 043.2060 316.9263 14.23647314036319
ISS (ZARYA)
1 25544U 98067A   18173.88385463 +.00096776 +00000-0 +14447-2 0  9992
2 25544 051.6420 350.3141 0002574 235.2521 267.9805 15.54253512119400
PCSAT
1 26931U 01043C   18173.59858628 -.00000029 +00000-0 +20828-4 0  9996
2 26931 067.0500 215.4467 0007933 273.8322 086.1872 14.30508554873251
SAUDISAT 1C
1 27607U 02058C   18173.90555977 -.00000029 +00000-0 +16711-4 0  9996
2 27607 064.5560 072.5561 0065883 327.1418 032.5595 14.75458803833673
CUTE-1
1 27844U 03031E   18173.93868231 +.00000048 +00000-0 +41172-4 0  9993
2 27844 098.6861 182.5103 0009780 002.7876 357.3355 14.22118938776975
CUBESAT XI 4
1 27848U 03031J   18173.82924167 +.00000040 +00000-0 +38086-4 0  9998
2 27848 098.6946 182.8024 0009908 013.3261 346.8176 14.21722339776830
MOZHAYETS 4
1 27939U 03042A   18173.91649936 +.00000071 +00000-0 +21191-4 0  9992
2 27939 097.9912 312.9027 0014121 127.1839 346.8511 14.66694686787515
CUBESAT XI 5
1 28895U 05043F   18173.95085366 +.00000119 +00000-0 +31619-4 0  9991
2 28895 097.9097 325.1729 0017953 054.5184 305.7691 14.63555645674480
CUTE-1.7+APD II
1 32785U 08021C   18173.83041904 +.00000220 +00000-0 +29490-4 0  9997
2 32785 097.5466 185.7394 0013755 026.4243 333.7673 14.88133991549943
DELFI C3
1 32789U 08021G   18173.69281398 +.00001544 +00000-0 +10969-3 0  9998
2 32789 097.5117 228.3632 0010741 279.8174 080.1840 15.06101915552516
SEEDS
1 32791U 08021J   18173.84275177 +.00000310 +00000-0 +37005-4 0  9997
2 32791 097.5356 191.1229 0013501 007.1657 352.9753 14.90569655550273
YUBELEINY
1 32953U 08025A   18173.91464900 +.00000030 +00000-0 +14504-3 0  9990
2 32953 082.5027 009.1171 0018801 194.9346 165.1181 12.43083541457483
PRISM (HITOMI)
1 33493U 09002B   18171.97999282 -.00000066  00000-0 -13671-6 0  9994
2 33493  98.1318  74.2172 0014769 309.3290  50.6620 14.96234789510918
KKS-1 (KISEKI)
1 33499U 09002H   18173.94376773 +.00000118 +00000-0 +25521-4 0  9994
2 33499 098.3564 355.8970 0007900 275.5267 084.5040 14.75337858505600
SWISSCUBE
1 35932U 09051B   18173.93359663 +.00000120 +00000-0 +38114-4 0  9995
2 35932 098.5461 325.2321 0007591 183.2333 176.8816 14.56168428464231
BEESAT
1 35933U 09051C   18173.89170326 +.00000115 +00000-0 +37015-4 0  9991
2 35933 098.5499 326.7407 0005520 193.8900 166.2146 14.56271515464298
ITUPSAT 1
1 35935U 09051E   18173.94969903 +.00000080 +00000-0 +29413-4 0  9990
2 35935 098.5612 327.0529 0007907 192.4523 167.6480 14.55447659464135
XIWANG-1 (HOPE-1)
1 36122U 09072B   18173.94090491 -.00000038 +00000-0 +11961-4 0  9992
2 36122 100.0747 188.3071 0008285 098.6897 261.5156 13.16344951409302
TISAT 1
1 36799U 10035E   18174.15679640  .00000229  00000-0  29300-4 0  9993
2 36799  98.1072 310.5305 0012323 182.3828 177.7332 14.90815193431046
JUGNU
1 37839U 11058B   18173.86524779  .00000301  00000-0  18789-4 0  9994
2 37839  19.9628   2.8202 0018941 309.6464 174.1185 14.12621762346176
SRMSAT
1 37841U 11058D   18173.96117831 +.00000286 +00000-0 +11783-4 0  9994
2 37841 019.9733 051.5572 0011854 193.8649 281.0312 14.10608516345608
M-CUBED/EXP-1 PRIME
1 37855U 11061F   18173.79407958 +.00001681 +00000-0 +93023-4 0  9993
2 37855 101.7156 239.1953 0176487 065.7182 296.2351 15.04475087362498
HORYU 2
1 38340U 12025D   18173.63485002 +.00000171 +00000-0 +33157-4 0  9998
2 38340 098.3655 195.5428 0011355 186.9103 173.1950 14.75564585317505
STRAND 1
1 39090U 13009E   18173.82732029  .00000014  00000-0  20154-4 0  9998
2 39090  98.5215  20.1391 0008012 283.0758  76.9533 14.35029794278636
SOMP
1 39134U 13015E   18173.92716508 +.00001235 +00000-0 +67819-4 0  9994
2 39134 064.8638 108.3417 0012334 214.8756 145.1564 15.19193566285396
BEESAT 3
1 39135U 13015F   18173.95850014 +.00001065 +00000-0 +63909-4 0  9996
2 39135 064.8685 121.6704 0019792 236.9623 122.9602 15.16699925285134
BEESAT 2
1 39136U 13015G   18173.93024409 +.00000934 +00000-0 +58093-4 0  9998
2 39136 064.8692 124.5637 0022204 236.1286 123.7727 15.16167165285075
CUBEBUG 1
1 39153U 13018D   18173.91863589 +.00000142 +00000-0 +25527-4 0  9995
2 39153 097.9793 269.1329 0015561 289.0630 070.8896 14.80404165278351
ZACUBE
1 39417U 13066B   18173.65244977  .00000171  00000-0  27891-4 0  9994
2 39417  97.5864 202.0001 0060269 136.2176 224.3839 14.80943490247601
TRITON 1
1 39427U 13066M   18173.95894612 +.00000188 +00000-0 +38262-4 0  9997
2 39427 097.6414 169.5039 0112655 240.5137 118.4794 14.67676400245234
GOMX 1
1 39430U 13066Q   18173.92679504 +.00000182 +00000-0 +42466-4 0  9994
2 39430 097.6977 150.3867 0150449 312.8863 045.9785 14.59088270243809
HUMSAT D
1 39433U 13066T   18173.87520346 +.00000258 +00000-0 +30672-4 0  9990
2 39433 097.6033 230.0536 0032400 065.2002 295.2582 14.91877671248092
CUBEBUG 2
1 39440U 13066AA  18173.97205740 +.00000187 +00000-0 +33086-4 0  9990
2 39440 097.6007 188.8656 0080625 175.6372 184.5560 14.75681174245571
FUNCUBE 1
1 39444U 13066AE  18173.91564404 +.00000258 +00000-0 +38143-4 0  9991
2 39444 097.5873 203.7817 0059504 130.7932 229.8465 14.81725170245914
UWE-3
1 39446U 13066AG  18173.57878557 +.00000194 +00000-0 +32446-4 0  9991
2 39446 097.5922 194.8141 0070851 157.0254 203.4154 14.78215095245322
SPROUT
1 39770U 14029E   18173.77553240  .00000517  00000-0  64053-4 0  9990
2 39770  97.8776 274.7746 0008915 181.3270 178.7914 14.86864963221191
UNISAT 6
1 40012U 14033C   18173.84926175 +.00000154 +00000-0 +30522-4 0  9996
2 40012 097.8078 049.9123 0058349 179.6853 180.4402 14.73827844215537
DUCHIFAT 1
1 40021U 14033M   18173.83264689 +.00000304 +00000-0 +37095-4 0  9999
2 40021 097.9163 092.5621 0013433 153.5933 206.5971 14.90320092217798
QB50P1
1 40025U 14033R   18173.72611465 +.00000238 +00000-0 +31504-4 0  9994
2 40025 097.9053 089.1136 0012822 160.5432 199.6276 14.88724203217100
CHUBUSAT 1
1 40300U 14070C   18173.82087772  .00000653  00000-0  31897-4 0  9996
2 40300  97.3618 251.3949 0018695 241.0656 258.8355 15.21588588201133
NUDT-PHONESAT
1 40900U 15049B   18173.96178967 +.00002043 +00000-0 +94109-4 0  9991
2 40900 097.4403 182.1467 0013885 017.1268 343.0434 15.21356216152798
ZDPS 2A
1 40901U 15049C   18174.21162815  .00000875  00000-0  47436-4 0  9998
2 40901  97.4582 180.4637 0014383  23.7996 336.3900 15.17108127152572
ZDPS 2B
1 40902U 15049D   18173.92228982 +.00000845 +00000-0 +46180-4 0  9996
2 40902 097.4482 178.1924 0014390 022.0000 338.1848 15.16901941152510
XW-2A
1 40903U 15049E   18173.82796552  .00001839  00000-0  47281-4 0  9996
2 40903  97.3835 208.7393 0014548  17.3063 342.8676 15.40530118154674
KAITUO 1A
1 40904U 15049F   18173.82980416  .00000420  00000-0  25943-4 0  9997
2 40904  97.4587 177.3087 0015731  24.1386  97.8221 15.15031388152353
OBJECT G
1 40905U 15049G   18173.96564825 +.00000401 +00000-0 +25622-4 0  9998
2 40905 097.4584 175.5075 0016258 016.9704 343.2068 15.13983889152296
XW-2C
1 40906U 15049H   18173.93169455 +.00000638 +00000-0 +37409-4 0  9994
2 40906 097.4594 177.3176 0015477 016.5703 343.6032 15.15206782152362
XW-2D
1 40907U 15049J   18173.94960636 +.00000680 +00000-0 +39479-4 0  9992
2 40907 097.4568 177.0314 0014785 014.6941 345.4719 15.15359033152370
LILACSAT 2
1 40908U 15049K   18173.96320664 +.00000375 +00000-0 +24507-4 0  9993
2 40908 097.4681 176.3962 0016449 015.7191 344.4548 15.13521383152248
XW-2F
1 40910U 15049M   18173.95965167 +.00001020 +00000-0 +55577-4 0  9997
2 40910 097.4569 178.3667 0015358 010.1212 350.0327 15.16558910152451
XW-2B
1 40911U 15049N   18173.96732659 +.00000663 +00000-0 +38658-4 0  9990
2 40911 097.4603 177.5888 0014704 015.2372 344.9300 15.15302768152274
KAITUO 1B
1 40912U 15049P   18173.82600900  .00001282  00000-0  64768-4 0  9998
2 40912  97.4503 181.0740 0015476 358.0867 125.8212 15.18780007152520
TIANWANG 1C (TW-1C)
1 40926U 15051B   18174.07746544  .00008166  00000-0  15168-3 0  9996
2 40926  97.1820 216.3922 0007793 250.1376 163.7967 15.49147795154220
